Temperature
18 18 18 19 19 19 19 19 19 19 19 19 18 18 18 18 18 18 18 18 18 18 18 18 18 18 18 18 18 18 18 18 17 17 17 17 17 17 17 17 17 17 17
19 18 18 19 19 19 19 19 19 19 19 18 18 18 18 18 18 18 18 18 18 18 18 18 18 18 18 18 18 18 17 17 17 17 17 17 17 17 17 17 17 17 17
19 19 19 19 19 19 19 19 19 19 18 18 18 18 18 18 18 18 18 18 18 18 18 18 18 18 18 18 18 18 17 17 17 17 17 17 17 17 17 17 17 17 17
19 19 19 19 19 19 19 19 19 19 18 18 18 18 18 18 18 18 18 18 18 18 18 18 18 18 18 18 18 17 17 17 17 17 17 17 17 17 17 17 17 17 17
19 19 19 19 19 19 19 19 19 19 18 18 18 18 18 18 18 18 18 18 18 17 18 18 17 17 17 17 17 17 17 17 17 17 17 17 17 17 17 17 17 17 17
19 19 19 19 19 19 19 19 18 18 18 18 18 18 18 18 18 18 18 18 18 18 17 17 17 17 17 17 17 17 17 17 17 17 17 17 17 17 17 17 17 17 17
19 19 19 19 19 19 19 19 19 18 18 18 18 18 18 18 18 18 18 18 18 18 18 17 17 17 17 17 17 17 17 17 17 17 17 17 17 17 17 17 17 17 17
19 19 19 19 19 19 19 19 19 18 18 18 18 18 18 18 18 18 18 18 18 18 18 17 17 17 17 17 17 17 17 17 17 17 17 17 17 17 17 17 17 17 17
19 19 19 19 19 19 19 19 18 18 18 18 18 18 18 18 18 18 18 18 18 18 17 17 17 17 17 17 17 17 17 17 17 17 17 17 17 17 17 17 17 17 17
19 19 19 19 19 19 19 19 18 18 18 18 18 18 18 18 18 18 18 18 18 18 17 17 17 17 17 17 17 17 17 17 17 17 17 17 17 17 17 17 17 17 17
19 19 19 19 19 19 19 19 18 18 18 18 18 18 18 18 18 18 18 18 18 18 17 17 17 17 17 17 17 17 17 17 17 17 17 17 17 17 17 17 17 17 17
20 19 19 19 19 19 19 19 19 18 18 18 18 18 18 18 18 18 18 18 18 18 17 17 17 17 17 17 17 17 17 17 17 17 17 17 17 17 17 17 17 17 17
20 20 19 19 19 19 19 19 19 19 18 18 18 18 18 18 18 18 18 18 18 18 18 18 17 17 17 17 17 17 17 17 17 17 17 17 17 17 17 17 17 17 17
20 20 20 19 19 19 19 19 19 19 18 18 18 18 18 18 18 18 18 18 18 18 18 18 17 17 17 17 17 17 17 17 17 17 17 17 17 17 17 17 17 17 17
20 20 20 19 19 19 19 19 19 19 18 18 18 18 18 18 18 18 18 18 18 18 18 17 17 17 17 17 17 17 17 17 17 17 17 17 17 17 17 17 17 17 17
21 20 20 20 19 19 19 19 19 19 18 18 18 18 18 18 18 18 18 18 18 18 17 17 17 17 17 17 17 17 17 17 17 17 17 17 17 17 17 17 17 17 17
21 21 20 20 20 19 19 19 19 18 18 18 18 18 18 18 18 18 18 18 18 18 17 17 17 17 17 17 17 17 17 17 17 17 17 17 17 17 17 17 17 17 17
21 21 20 20 20 19 19 19 19 18 18 18 18 18 18 18 18 18 18 18 18 17 17 17 17 17 17 17 17 17 17 17 17 17 17 17 17 17 17 17 17 17 17
21 21 20 20 20 19 19 19 19 18 18 18 18 18 18 18 18 18 18 18 17 17 17 18 17 17 18 17 17 17 17 17 17 17 17 17 17 17 17 17 17 17 17
21 21 20 20 20 19 19 19 19 19 19 18 18 18 18 18 18 18 18 18 17 17 18 17 17 17 17 17 17 17 17 17 18 18 17 17 17 17 17 17 17 17 17
21 21 20 20 20 19 19 19 19 19 19 18 18 18 18 18 18 18 18 18 18 17 17 18 17 17 17 17 17 17 17 18 18 18 18 17 17 17 17 17 17 17 17
21 21 21 20 20 20 19 19 19 19 19 18 18 18 18 18 18 18 18 18 18 18 18 18 18 17 17 17 17 17 17 17 18 18 18 18 18 17 17 17 17 17 17
21 21 21 21 20 20 20 19 19 19 18 18 18 18 18 18 18 18 18 18 18 18 18 18 18 17 17 17 17 17 17 17 17 17 18 18 18 17 17 17 17 17 17
22 21 21 20 20 20 20 19 19 19 19 19 18 18 18 18 18 18 18 18 18 18 18 18 18 17 17 17 17 17 17 17 17 17 17 17 17 17 17 17 17 17 17
22 21 21 20 20 20 20 19 19 19 19 18 18 18 18 18 18 18 18 18 18 18 18 18 17 17 17 17 17 17 17 17 16 16 16 17 17 17 17 17 17 17 17
21 21 21 20 20 20 20 19 19 19 19 18 18 18 18 18 18 18 18 18 18 18 18 17 17 17 17 17 17 17 17 17 17 17 16 16 16 17 17 17 17 16 16
Wind_Speed
2 4 10 12 13 14 15 16 16 17 17 17 17 17 17 17 16 17 17 17 17 17 17 17 17 17 17 18 18 19 19 18 18 18 18 18 18 18 17 17 17 16 17
5 7 11 12 12 13 14 15 15 16 16 16 16 16 16 16 16 16 16 16 17 17 17 17 17 17 17 18 18 18 18 18 17 17 17 17 17 17 17 16 16 15 17
6 8 10 11 12 13 13 13 14 15 15 15 15 15 15 15 15 15 15 16 16 16 17 17 17 16 17 17 17 17 17 17 17 16 16 14 15 16 16 16 16 16 16
8 8 9 11 11 12 12 13 13 14 14 14 14 14 14 14 14 15 15 15 15 16 16 16 16 16 16 16 16 16 16 16 16 15 12 12 12 15 15 16 16 15 15
7 8 9 11 11 11 11 11 12 12 13 13 13 13 13 13 14 14 14 14 15 15 16 16 15 15 15 14 14 14 14 14 14 13 11 11 11 14 14 15 15 14 14
6 7 9 11 11 11 11 11 11 11 12 12 12 12 12 12 12 13 13 14 14 14 15 15 14 14 13 13 13 13 13 13 13 11 11 11 11 13 14 14 14 13 13
6 6 9 11 10 10 10 10 10 11 11 11 11 11 11 11 12 12 12 12 13 13 13 13 13 12 12 11 12 12 12 13 12 11 10 9 10 12 13 13 13 13 12
6 6 8 10 10 10 10 10 10 10 10 10 10 10 10 11 11 11 11 11 11 12 12 11 11 10 10 10 10 11 11 12 11 10 9 9 10 11 12 12 12 12 12
5 5 5 7 8 9 9 9 9 9 9 9 9 10 10 10 10 10 9 10 10 10 10 10 9 9 9 9 8 9 9 11 10 8 8 8 9 10 11 11 11 11 11
4 3 4 5 6 6 7 9 9 9 8 8 8 9 9 8 8 8 8 8 8 8 8 8 8 8 8 8 7 8 9 9 8 7 7 7 9 10 10 11 11 11 10
5 3 3 4 5 6 6 7 7 8 7 7 7 7 7 6 6 6 6 7 7 6 6 6 6 6 7 6 6 7 7 7 7 6 6 8 9 10 10 10 10 10 10
7 5 3 4 4 5 5 5 5 5 5 5 5 6 6 5 4 3 3 4 5 5 5 5 4 5 6 5 5 6 5 6 6 6 6 8 9 9 10 10 10 10 10
8 7 6 4 4 4 3 5 4 4 4 4 4 5 5 4 3 2 2 2 3 3 3 3 4 4 3 3 3 3 4 4 5 5 6 9 9 9 10 10 10 10 10
8 8 6 5 4 4 3 4 4 3 3 2 3 4 4 2 1 1 1 1 1 1 2 2 2 3 2 2 2 2 3 4 4 5 7 9 9 10 10 11 11 10 10
8 8 7 6 6 5 4 3 4 4 4 4 4 4 4 3 2 1 1 1 1 1 0 1 1 2 2 1 0 2 3 4 5 6 7 9 10 10 10 11 11 11 10
10 8 7 8 7 6 4 4 3 5 5 4 4 5 5 5 3 2 1 1 2 2 2 1 1 1 1 1 1 1 2 4 5 6 7 8 10 10 11 11 11 11 11
10 9 8 8 7 6 6 5 5 5 6 5 5 6 6 6 5 3 2 2 3 3 3 2 1 0 1 1 1 1 2 3 4 5 6 7 7 10 11 12 12 12 12
9 9 9 9 8 7 6 5 4 5 6 6 6 6 7 8 7 4 3 3 4 3 2 2 1 1 1 1 1 2 2 3 4 5 6 6 7 8 10 12 13 13 13
10 9 9 8 8 7 6 5 4 4 5 5 6 6 7 8 8 7 5 4 4 3 2 2 1 1 2 2 2 2 2 3 4 5 6 7 8 8 9 10 13 14 14
8 8 8 7 7 6 4 3 2 2 2 4 5 6 7 7 8 7 5 4 4 2 2 2 2 2 2 2 2 2 2 3 3 4 6 7 7 8 9 10 10 12 14
7 7 8 8 7 6 3 3 3 2 2 2 4 5 6 7 7 7 4 3 3 3 3 3 2 2 2 1 1 1 2 2 4 4 5 5 6 7 8 9 9 9 9
9 9 8 8 7 7 5 3 3 2 2 2 2 3 5 6 6 6 5 4 4 3 3 3 3 2 1 2 2 1 2 3 2 3 3 4 5 6 7 8 8 9 9
9 9 9 8 7 7 6 4 3 2 2 1 1 1 3 5 6 6 5 5 4 4 4 4 4 4 3 2 3 3 2 3 2 2 1 2 3 4 5 6 7 9 10
9 7 7 7 6 6 6 5 5 4 3 3 2 2 2 3 4 5 5 5 4 4 4 4 4 4 4 3 3 3 3 3 2 2 1 1 1 2 3 4 5 7 8
7 6 6 5 5 5 6 6 5 4 3 1 1 1 1 1 2 3 4 3 3 3 4 4 3 4 4 4 3 2 3 2 3 3 3 2 1 1 1 2 3 4 5
6 6 6 6 5 5 6 6 6 6 4 2 2 1 1 1 1 2 2 2 3 3 3 3 3 4 4 4 3 3 3 3 3 4 5 3 2 2 1 1 1 2 2
Wind_Direction
132 129 119 111 105 102 101 100 100 102 101 101 101 101 101 99 97 97 97 97 98 98 99 101 102 102 102 103 105 106 107 108 109 109 110 111 111 111 111 110 110 110 112
139 132 122 115 110 106 103 103 103 104 103 102 102 101 100 100 99 98 97 98 99 100 100 101 102 102 103 104 105 106 107 109 111 112 112 112 112 113 113 112 112 116 116
124 128 125 120 115 110 107 107 105 105 104 104 103 101 101 101 100 100 98 98 100 101 101 101 101 102 103 104 105 107 109 110 111 110 108 109 113 115 115 115 116 117 117
127 127 129 125 120 114 111 109 107 106 106 106 105 104 103 103 102 102 101 100 100 102 102 102 102 103 105 106 108 110 111 110 111 107 103 107 113 118 118 118 117 116 117
120 129 137 131 126 120 115 112 110 109 109 109 107 107 106 104 103 102 102 102 102 103 103 103 104 105 106 107 109 112 113 113 110 105 101 103 111 120 121 120 119 118 119
119 135 143 135 131 126 121 117 114 113 112 112 109 109 108 106 104 103 102 103 102 103 103 103 104 106 106 107 111 114 115 115 112 109 107 110 118 124 125 124 122 121 120
127 139 146 139 134 130 126 121 118 116 115 114 111 108 108 108 108 107 105 104 105 104 104 104 105 104 104 104 109 114 116 120 117 114 114 117 126 129 129 128 127 126 125
129 137 147 143 139 135 132 129 125 121 119 117 114 111 109 109 109 109 108 108 108 107 106 105 103 101 100 103 111 116 119 125 124 123 122 127 132 133 132 131 132 131 129
122 125 130 139 141 139 138 135 131 126 122 120 118 114 111 110 110 110 109 107 107 108 107 105 101 97 94 99 112 122 126 131 130 131 134 135 139 139 139 140 140 137 137
113 113 119 123 126 129 137 139 136 133 129 126 123 119 116 113 111 110 109 109 109 107 107 105 104 100 96 100 110 120 123 127 134 137 140 148 152 152 151 149 147 145 144
155 136 129 129 131 134 140 146 142 139 135 130 128 123 110 98 98 104 112 117 117 112 106 101 96 93 89 93 107 115 121 131 142 147 155 163 166 166 162 158 156 156 154
179 178 165 158 153 153 153 136 129 126 127 125 123 117 111 108 106 108 107 115 118 111 100 88 75 74 76 81 95 105 128 144 154 162 174 177 180 178 172 169 167 164 164
181 183 178 175 171 167 143 136 131 126 130 136 139 135 128 114 98 79 69 63 71 77 70 65 53 55 68 85 90 110 140 155 168 178 185 188 189 187 183 179 177 177 176
179 189 178 174 172 184 172 157 152 149 152 164 179 165 148 136 127 102 75 52 23 44 55 50 44 31 44 74 117 143 165 178 189 195 200 198 199 199 196 192 190 190 189
187 192 181 178 179 186 183 185 173 178 181 191 195 191 181 176 182 177 198 234 269 252 238 20 27 8 7 11 198 179 192 199 204 207 210 209 209 208 207 206 202 200 200
193 192 183 184 189 186 183 192 190 189 191 196 205 206 202 199 198 192 214 239 247 238 245 260 282 336 334 337 300 234 216 213 212 213 215 217 218 217 217 216 214 213 211
191 188 186 189 187 190 193 197 197 195 195 200 211 213 212 209 205 198 206 234 242 238 236 247 272 328 300 295 268 249 217 222 221 220 217 219 225 228 227 224 221 220 220
182 183 190 194 186 192 190 191 196 197 197 204 211 214 214 214 208 197 211 229 239 227 215 222 227 242 272 256 243 248 227 224 226 225 220 220 223 228 231 230 228 227 228
184 181 182 182 181 185 179 181 189 194 199 202 206 213 215 213 206 199 212 226 225 213 212 227 204 202 231 239 246 250 244 235 230 225 222 224 225 228 233 235 234 232 232
181 180 179 178 177 168 155 148 151 180 210 204 208 212 211 209 206 202 211 218 207 198 216 216 214 209 218 228 254 268 257 241 231 225 226 228 229 231 234 238 239 240 239
176 177 181 178 174 159 153 160 166 196 209 211 215 214 211 209 205 200 207 204 197 204 215 211 200 213 228 187 166 306 302 263 244 238 229 226 230 228 230 235 237 240 245
184 185 185 185 178 176 177 165 162 163 181 200 207 209 220 217 212 208 200 204 205 208 218 213 194 189 222 181 166 160 318 328 304 253 228 224 230 226 230 232 232 238 241
190 192 192 187 183 180 167 139 118 96 77 97 200 223 231 225 224 221 209 207 209 203 214 216 203 198 214 215 194 175 188 243 304 327 270 233 226 225 234 237 237 239 240
195 188 184 178 176 174 164 164 170 179 192 206 203 215 240 230 230 229 221 211 210 210 218 223 211 207 199 219 218 216 213 198 211 297 328 295 241 236 236 240 242 238 237
178 174 173 170 176 175 172 177 177 188 194 181 168 197 245 266 252 246 233 222 221 222 224 222 212 209 207 212 212 208 216 222 219 227 267 295 332 285 254 241 246 247 242
161 163 163 167 188 185 177 179 184 186 182 178 192 202 244 279 300 292 258 236 234 231 225 218 213 210 216 219 223 216 203 207 210 213 237 253 269 282 293 269 259 266 262
Height
1530 1531 1531 1531 1531 1532 1532 1532 1532 1533 1533 1534 1534 1535 1535 1536 1536 1537 1537 1538 1538 1539 1540 1542 1542 1544 1545 1546 1547 1548 1549 1551 1552 1553 1555 1556 1558 1559 1560 1562 1563 1564 1565
1531 1532 1533 1534 1534 1534 1534 1535 1535 1536 1536 1537 1537 1538 1538 1539 1539 1540 1541 1541 1542 1542 1543 1545 1546 1547 1548 1549 1550 1551 1552 1553 1555 1556 1558 1559 1560 1561 1563 1564 1565 1566 1567
1533 1534 1535 1536 1536 1537 1537 1538 1538 1539 1539 1540 1540 1541 1541 1542 1542 1543 1544 1544 1545 1545 1546 1547 1548 1550 1551 1552 1553 1554 1555 1556 1557 1559 1560 1561 1563 1564 1565 1566 1567 1569 1570
1535 1536 1537 1538 1539 1539 1540 1541 1541 1542 1542 1543 1543 1544 1544 1545 1545 1546 1547 1547 1547 1548 1549 1550 1551 1552 1554 1555 1556 1557 1558 1559 1560 1561 1562 1564 1565 1566 1567 1568 1570 1571 1572
1536 1538 1539 1540 1541 1542 1542 1543 1544 1544 1545 1546 1546 1547 1547 1548 1548 1549 1549 1550 1551 1551 1552 1553 1554 1556 1557 1558 1559 1560 1561 1561 1563 1563 1565 1566 1567 1568 1569 1571 1572 1573 1574
1538 1540 1541 1542 1543 1544 1545 1545 1546 1547 1547 1548 1549 1549 1550 1550 1551 1551 1552 1553 1554 1554 1555 1556 1557 1558 1559 1560 1561 1562 1563 1564 1565 1566 1567 1568 1569 1570 1571 1572 1574 1575 1576
1540 1541 1543 1544 1545 1546 1547 1548 1548 1549 1550 1550 1551 1552 1552 1553 1554 1554 1555 1555 1556 1557 1558 1559 1560 1561 1562 1563 1564 1565 1565 1566 1567 1568 1569 1570 1571 1572 1573 1574 1575 1576 1578
1542 1543 1545 1546 1547 1548 1549 1550 1550 1551 1552 1553 1554 1554 1555 1555 1556 1557 1558 1558 1559 1560 1561 1562 1563 1564 1565 1566 1566 1567 1568 1568 1569 1570 1571 1572 1573 1574 1575 1576 1577 1578 1579
1544 1545 1546 1547 1549 1550 1551 1551 1552 1553 1554 1555 1556 1557 1557 1558 1559 1559 1560 1561 1562 1562 1564 1564 1565 1566 1567 1568 1569 1569 1570 1571 1571 1572 1573 1574 1575 1575 1576 1577 1578 1579 1580
1545 1547 1548 1549 1550 1552 1552 1553 1554 1555 1556 1557 1558 1559 1559 1560 1561 1562 1562 1563 1564 1565 1566 1567 1568 1569 1569 1570 1571 1571 1572 1572 1573 1574 1574 1575 1576 1577 1578 1578 1579 1580 1581
1546 1548 1549 1551 1552 1553 1554 1555 1556 1557 1558 1559 1560 1561 1561 1562 1563 1564 1564 1565 1566 1567 1568 1569 1570 1571 1571 1572 1573 1573 1574 1574 1575 1575 1576 1576 1577 1578 1579 1580 1580 1581 1582
1547 1549 1550 1552 1554 1555 1556 1557 1558 1559 1560 1561 1562 1563 1563 1564 1565 1565 1566 1567 1568 1569 1570 1571 1572 1572 1573 1574 1574 1575 1575 1576 1576 1576 1577 1577 1578 1579 1579 1580 1581 1582 1583
1548 1550 1551 1553 1555 1557 1558 1558 1559 1560 1561 1562 1563 1564 1565 1566 1567 1567 1568 1569 1570 1571 1572 1572 1573 1574 1575 1575 1576 1576 1576 1577 1577 1577 1578 1578 1579 1579 1580 1581 1582 1582 1583
1548 1550 1552 1555 1556 1558 1559 1560 1561 1562 1563 1564 1565 1566 1567 1567 1568 1569 1570 1571 1571 1572 1573 1574 1574 1575 1576 1576 1577 1577 1577 1578 1578 1578 1578 1579 1579 1580 1580 1581 1582 1582 1583
1549 1551 1553 1555 1556 1559 1560 1561 1563 1564 1565 1566 1567 1567 1568 1569 1569 1570 1571 1571 1572 1573 1574 1575 1575 1576 1576 1577 1577 1577 1578 1578 1578 1579 1579 1579 1580 1580 1580 1581 1581 1582 1583
1550 1552 1554 1555 1557 1559 1560 1562 1564 1565 1566 1566 1567 1568 1569 1570 1570 1571 1571 1572 1573 1574 1575 1575 1576 1576 1577 1577 1577 1578 1578 1578 1578 1579 1579 1579 1580 1580 1580 1581 1581 1581 1582
1550 1552 1554 1556 1557 1559 1561 1562 1564 1565 1566 1567 1568 1569 1569 1570 1571 1571 1572 1572 1573 1574 1575 1575 1576 1576 1576 1577 1577 1577 1578 1578 1578 1578 1578 1579 1579 1579 1580 1580 1580 1581 1581
1550 1552 1554 1556 1557 1559 1561 1562 1564 1565 1566 1567 1568 1569 1569 1570 1571 1571 1572 1572 1573 1574 1574 1575 1575 1576 1576 1576 1576 1576 1577 1577 1577 1577 1577 1578 1578 1578 1578 1579 1579 1579 1580
1549 1552 1554 1555 1557 1559 1560 1562 1564 1565 1566 1567 1568 1568 1569 1569 1570 1570 1571 1571 1572 1573 1573 1574 1574 1575 1575 1575 1575 1575 1575 1575 1575 1576 1576 1576 1576 1577 1577 1577 1578 1578 1578
1549 1551 1553 1555 1557 1558 1560 1561 1563 1564 1565 1566 1567 1567 1568 1569 1569 1570 1570 1571 1571 1572 1572 1573 1573 1573 1574 1574 1574 1574 1573 1573 1573 1573 1574 1574 1574 1575 1575 1575 1575 1576 1576
1547 1549 1552 1554 1556 1557 1558 1560 1561 1562 1564 1565 1565 1566 1567 1568 1568 1568 1569 1569 1570 1570 1570 1571 1571 1572 1572 1572 1572 1572 1571 1571 1571 1571 1571 1571 1572 1572 1572 1573 1573 1573 1573
1545 1548 1550 1552 1554 1556 1558 1559 1560 1561 1562 1563 1564 1565 1566 1566 1567 1567 1567 1568 1568 1568 1569 1569 1569 1569 1570 1570 1570 1570 1569 1569 1568 1568 1568 1568 1569 1569 1570 1570 1570 1570 1571
1543 1545 1547 1550 1552 1554 1556 1558 1559 1560 1561 1562 1563 1564 1564 1565 1565 1565 1566 1566 1566 1567 1566 1567 1567 1567 1567 1568 1568 1568 1567 1566 1566 1566 1566 1566 1566 1567 1567 1567 1567 1568 1568
1540 1543 1546 1548 1551 1553 1555 1556 1557 1558 1559 1560 1561 1562 1563 1563 1564 1564 1564 1564 1564 1564 1564 1564 1564 1564 1564 1564 1565 1565 1566 1565 1565 1563 1564 1564 1564 1564 1564 1564 1564 1564 1564
1539 1541 1544 1546 1549 1551 1553 1554 1555 1556 1557 1559 1559 1560 1561 1562 1562 1562 1562 1562 1561 1561 1561 1561 1561 1561 1561 1561 1561 1562 1562 1562 1562 1562 1561 1561 1561 1561 1561 1561 1561 1561 1561
1537 1539 1542 1544 1546 1549 1551 1552 1553 1554 1555 1557 1557 1558 1559 1559 1560 1559 1559 1559 1559 1558 1558 1558 1558 1558 1558 1558 1558 1558 1558 1558 1558 1559 1558 1557 1558 1558 1558 1558 1558 1558 1558